When you browse on this site, cookies collect data to enhance your experience and personalize the content and advertising you see.
Visit our Privacy Policy to learn more. By continuing to use the site, you agree to this use of cookies and data.
  • In Switzerland
  • List of Countries
  • For 7 days
  • Water Temperature
  • Satellite Maps
  • Weather Map
  • Weather Widgets
  • user-avatar
    Login

    Hourly Weather Yanmen

    Today, 18 July, Thursday

    Time Temperature Precipitation Wind Pressure Humidity
    00:00 +25°C° 0 mm 0 mps 730 mmHg 89%
    01:00 +25°C° 0 mm 0 mps 730 mmHg 91%
    02:00 +25°C° 0 mm 0 mps 730 mmHg 91%
    03:00 +25°C° 0 mm 0 mps 729 mmHg 92%
    04:00 +24°C° 0 mm 0 mps 729 mmHg 93%
    05:00 +25°C° 0 mm 0 mps 730 mmHg 91%
    06:00 +26°C° 0 mm 0 mps 730 mmHg 90%
    07:00 +27°C° 0 mm 0 mps 730 mmHg 89%
    08:00 +30°C° 1.3 mm 1 mps 730 mmHg 86%
    09:00 +31°C° 1.3 mm 1 mps 730 mmHg 84%
    10:00 +32°C° 1.3 mm 2 mps 730 mmHg 82%
    11:00 +33°C° 1.5 mm 1 mps 729 mmHg 80%
    12:00 +33°C° 1.5 mm 1 mps 729 mmHg 78%
    13:00 +33°C° 1.5 mm 1 mps 728 mmHg 76%
    14:00 +34°C° 0.6 mm 1 mps 728 mmHg 75%
    15:00 +34°C° 0.6 mm 1 mps 728 mmHg 73%
    16:00 +34°C° 0.6 mm 1 mps 728 mmHg 71%
    17:00 +32°C° 0.3 mm 1 mps 728 mmHg 77%
    18:00 +31°C° 0.3 mm 1 mps 728 mmHg 84%
    19:00 +29°C° 0.3 mm 1 mps 728 mmHg 90%
    20:00 +29°C° 1 mm 1 mps 729 mmHg 92%
    21:00 +28°C° 1 mm 1 mps 730 mmHg 94%
    22:00 +27°C° 1 mm 2 mps 730 mmHg 96%
    23:00 +27°C° 0.3 mm 1 mps 730 mmHg 97%

    Tomorrow, 19 July, Friday

    Time Temperature Precipitation Wind Pressure Humidity
    00:00 +27°C° 0.3 mm 1 mps 730 mmHg 97%
    01:00 +27°C° 0.3 mm 1 mps 729 mmHg 97%
    02:00 +26°C° 0 mm 1 mps 729 mmHg 97%
    03:00 +26°C° 0 mm 1 mps 729 mmHg 97%
    04:00 +26°C° 0 mm 1 mps 729 mmHg 97%
    05:00 +27°C° 0 mm 1 mps 730 mmHg 96%
    06:00 +27°C° 0 mm 1 mps 730 mmHg 95%
    07:00 +28°C° 0 mm 1 mps 731 mmHg 94%
    08:00 +29°C° 0 mm 1 mps 731 mmHg 88%
    09:00 +31°C° 0 mm 1 mps 731 mmHg 82%
    10:00 +32°C° 0 mm 1 mps 731 mmHg 76%
    11:00 +33°C° 0.2 mm 1 mps 730 mmHg 73%
    12:00 +34°C° 0.2 mm 2 mps 730 mmHg 71%
    13:00 +35°C° 0.2 mm 2 mps 729 mmHg 69%
    14:00 +34°C° 0.2 mm 1 mps 729 mmHg 68%
    15:00 +34°C° 0.2 mm 1 mps 729 mmHg 67%
    16:00 +34°C° 0.2 mm 1 mps 728 mmHg 66%
    17:00 +33°C° 0.1 mm 1 mps 729 mmHg 72%
    18:00 +31°C° 0.1 mm 1 mps 729 mmHg 78%
    19:00 +28°C° 0.1 mm 0 mps 729 mmHg 83%
    20:00 +27°C° 0.1 mm 0 mps 730 mmHg 85%
    21:00 +27°C° 0.1 mm 0 mps 730 mmHg 87%
    22:00 +28°C° 0.1 mm 1 mps 731 mmHg 90%
    23:00 +28°C° 0.7 mm 1 mps 730 mmHg 92%

    Day after tomorrow, 20 July, Saturday

    Time Temperature Precipitation Wind Pressure Humidity
    00:00 +27°C° 0.7 mm 1 mps 730 mmHg 94%
    01:00 +27°C° 0.7 mm 1 mps 730 mmHg 96%
    02:00 +25°C° 1.5 mm 0 mps 730 mmHg 96%
    03:00 +25°C° 1.5 mm 0 mps 730 mmHg 96%
    04:00 +24°C° 1.5 mm 0 mps 730 mmHg 97%
    05:00 +25°C° 0 mm 0 mps 730 mmHg 95%
    06:00 +26°C° 0 mm 0 mps 730 mmHg 94%
    07:00 +27°C° 0 mm 0 mps 731 mmHg 93%
    08:00 +29°C° 0.1 mm 0 mps 731 mmHg 86%
    09:00 +30°C° 0.1 mm 0 mps 731 mmHg 80%
    10:00 +32°C° 0.1 mm 0 mps 730 mmHg 73%
    11:00 +33°C° 0.3 mm 0 mps 730 mmHg 69%
    12:00 +36°C° 0.3 mm 1 mps 730 mmHg 65%
    13:00 +37°C° 0.3 mm 1 mps 729 mmHg 62%
    14:00 +36°C° 0.6 mm 1 mps 729 mmHg 62%
    15:00 +36°C° 0.6 mm 1 mps 728 mmHg 62%
    16:00 +36°C° 0.6 mm 1 mps 728 mmHg 62%
    17:00 +34°C° 0.3 mm 1 mps 728 mmHg 67%
    18:00 +31°C° 0.3 mm 0 mps 728 mmHg 73%
    19:00 +29°C° 0.3 mm 0 mps 729 mmHg 79%
    20:00 +28°C° 0.3 mm 0 mps 729 mmHg 81%
    21:00 +28°C° 0.3 mm 0 mps 729 mmHg 83%
    22:00 +27°C° 0.3 mm 0 mps 729 mmHg 85%
    23:00 +27°C° 0.2 mm 0 mps 729 mmHg 87%

    21 July, Sunday

    Time Temperature Precipitation Wind Pressure Humidity
    00:00 +27°C° 0.2 mm 0 mps 729 mmHg 88%
    01:00 +26°C° 0.2 mm 0 mps 729 mmHg 90%
    02:00 +26°C° 0 mm 0 mps 729 mmHg 91%
    03:00 +26°C° 0 mm 0 mps 729 mmHg 92%
    04:00 +26°C° 0 mm 0 mps 729 mmHg 93%
    05:00 +26°C° 0 mm 0 mps 729 mmHg 91%
    06:00 +27°C° 0 mm 0 mps 729 mmHg 90%
    07:00 +28°C° 0 mm 0 mps 730 mmHg 88%
    08:00 +31°C° 0.5 mm 1 mps 730 mmHg 82%
    09:00 +34°C° 0.5 mm 2 mps 730 mmHg 76%
    10:00 +35°C° 0.5 mm 2 mps 729 mmHg 69%
    11:00 +36°C° 0.8 mm 2 mps 729 mmHg 67%
    12:00 +36°C° 0.8 mm 2 mps 729 mmHg 66%
    13:00 +37°C° 0.8 mm 2 mps 728 mmHg 64%
    14:00 +36°C° 1.6 mm 2 mps 728 mmHg 69%
    15:00 +35°C° 1.6 mm 1 mps 727 mmHg 73%
    16:00 +34°C° 1.6 mm 1 mps 727 mmHg 78%
    17:00 +33°C° 1.6 mm 1 mps 727 mmHg 81%
    18:00 +32°C° 1.6 mm 1 mps 728 mmHg 84%
    19:00 +30°C° 1.6 mm 1 mps 728 mmHg 86%
    20:00 +30°C° 0.6 mm 1 mps 728 mmHg 87%
    21:00 +29°C° 0.6 mm 1 mps 729 mmHg 88%
    22:00 +29°C° 0.6 mm 1 mps 729 mmHg 89%
    23:00 +28°C° 0 mm 1 mps 729 mmHg 90%

    22 July, Monday

    Time Temperature Precipitation Wind Pressure Humidity
    00:00 +28°C° 0 mm 1 mps 729 mmHg 91%
    01:00 +28°C° 0 mm 1 mps 728 mmHg 91%
    02:00 +28°C° 0 mm 1 mps 728 mmHg 92%
    03:00 +27°C° 0 mm 1 mps 728 mmHg 93%
    04:00 +27°C° 0 mm 1 mps 728 mmHg 93%
    05:00 +28°C° 0 mm 1 mps 728 mmHg 91%
    06:00 +29°C° 0 mm 1 mps 729 mmHg 89%
    07:00 +29°C° 0 mm 1 mps 729 mmHg 87%
    08:00 +31°C° 0 mm 2 mps 729 mmHg 80%
    09:00 +34°C° 0 mm 2 mps 729 mmHg 72%
    10:00 +35°C° 0 mm 3 mps 729 mmHg 64%
    11:00 +36°C° 0 mm 3 mps 728 mmHg 63%
    12:00 +36°C° 0 mm 3 mps 728 mmHg 62%
    13:00 +37°C° 0 mm 3 mps 727 mmHg 62%
    14:00 +37°C° 0.2 mm 3 mps 727 mmHg 62%
    15:00 +37°C° 0.2 mm 3 mps 726 mmHg 62%
    16:00 +37°C° 0.2 mm 3 mps 726 mmHg 63%
    17:00 +35°C° 0.1 mm 3 mps 726 mmHg 68%
    18:00 +34°C° 0.1 mm 2 mps 727 mmHg 74%
    19:00 +31°C° 0.1 mm 2 mps 727 mmHg 80%
    20:00 +30°C° 0.1 mm 2 mps 727 mmHg 81%
    21:00 +30°C° 0.1 mm 1 mps 728 mmHg 82%
    22:00 +29°C° 0.1 mm 1 mps 728 mmHg 84%
    23:00 +29°C° 0 mm 1 mps 728 mmHg 85%

    23 July, Tuesday

    Time Temperature Precipitation Wind Pressure Humidity
    00:00 +28°C° 0 mm 1 mps 728 mmHg 86%
    01:00 +28°C° 0 mm 1 mps 728 mmHg 87%
    02:00 +28°C° 0 mm 1 mps 728 mmHg 88%
    03:00 +28°C° 0 mm 1 mps 727 mmHg 89%
    04:00 +27°C° 0 mm 1 mps 727 mmHg 90%
    05:00 +28°C° 0 mm 1 mps 728 mmHg 88%
    06:00 +29°C° 0 mm 1 mps 728 mmHg 86%
    07:00 +29°C° 0 mm 1 mps 728 mmHg 85%
    08:00 +31°C° 0 mm 2 mps 728 mmHg 78%
    09:00 +32°C° 0 mm 2 mps 728 mmHg 72%
    10:00 +35°C° 0 mm 3 mps 729 mmHg 65%
    11:00 +36°C° 0 mm 3 mps 728 mmHg 62%
    12:00 +37°C° 0 mm 3 mps 727 mmHg 59%
    13:00 +38°C° 0 mm 3 mps 727 mmHg 57%
    14:00 +37°C° 0.1 mm 3 mps 727 mmHg 58%
    15:00 +37°C° 0.1 mm 3 mps 726 mmHg 60%
    16:00 +37°C° 0.1 mm 4 mps 726 mmHg 62%
    17:00 +35°C° 0.6 mm 3 mps 726 mmHg 70%
    18:00 +32°C° 0.6 mm 2 mps 727 mmHg 78%
    19:00 +30°C° 0.6 mm 2 mps 727 mmHg 86%
    20:00 +29°C° 0.1 mm 2 mps 728 mmHg 86%
    21:00 +29°C° 0.1 mm 2 mps 728 mmHg 87%
    22:00 +28°C° 0.1 mm 2 mps 728 mmHg 88%
    23:00 +28°C° 0 mm 2 mps 728 mmHg 88%
    Show more